BRAC ONNESHA (42823 NORAD) Tracking and Keplerian Element Data

This shows tracking and keplerian element data for the satellite.

Feedback or suggestion? Click here.




ElementValue
Catalog42823
NameBRAC ONNESHA
Epoch Orbit10494
Epoch Day126.46325411
Epoch Year2019
RAAN126.183
Inclination51.6136
Eccentricity0.0002073
Argument of Perigee268.7751
Mean Anonmoly91.3478
Mean Motion16.43067843
Decay Rate0.10871672
L11 42823U 98067MX 19126.46325411 .10871672 12483-4 53364-3 0 9992
L22 42823 51.6136 126.1830 0002073 268.7751 91.3478 16.43067843104944

Live tracking and technical data element details for BRAC ONNESHA (NORAD 42823). BRAC ONNESHA can be tracked NOW for your location showing map with azimuth and elevation plus other details from your city location.

Track the satellite on the map from your city or location and see movement details for azimuth, elevation, latitude, longitude, range, height, and movement on the map or in text.







IsCatalogInMostPopularTable: catalog: 42823, numindb: 407
Update: records affected: 1



GetName: 42823 BRAC ONNESHA

Hit Count: updated at: Thu, 22 Oct 2020 03:26:25 GMT